Location: Unspecified
(0.0000°N, 0.0000°E)
Time: 12:53:58
(UTC+00:00)

Tiros 1 - All Passes

Search period start: 07 October 2022 00:00
Search period end: 17 October 2022 00:00
Orbit: 629 x 663 km, 48.4° (Epoch: 06 October)

Date Brightness Start Highest point End Pass type
(mag) Time Alt. Az. Time Alt. Az. Time Alt. Az.
07 Oct - 05:09:25 10° NE 05:10:18 10° NE 05:11:10 10° ENE visible
07 Oct - 06:47:47 10° NW 06:52:22 59° SW 06:56:55 10° SSE daylight
07 Oct - 17:19:39 10° S 17:23:04 19° SE 17:26:29 10° E daylight
07 Oct - 19:00:49 10° WSW 19:05:04 33° NW 19:09:21 10° NNE visible
08 Oct - 05:31:44 10° NNW 05:35:56 34° NE 05:40:08 10° ESE daylight
08 Oct - 07:14:45 10° W 07:17:56 18° SW 07:21:06 10° S daylight
08 Oct - 17:43:57 10° SSW 17:48:38 63° SE 17:53:20 10° NE daylight
08 Oct - 19:29:55 10° WNW 19:30:43 10° NW 19:31:31 10° NW visible
09 Oct - 05:56:50 10° NW 06:01:29 70° SW 06:06:06 10° SSE daylight
09 Oct - 16:29:07 10° S 16:32:10 17° SE 16:35:12 10° E daylight
09 Oct - 18:09:47 10° WSW 18:14:09 38° NW 18:18:34 10° NNE visible
10 Oct - 04:40:59 10° N 04:45:03 29° NE 04:49:05 10° ESE visible
10 Oct - 06:23:31 10° W 06:27:02 21° SW 06:30:32 10° S daylight
10 Oct - 16:53:07 10° SSW 16:57:44 54° SE 17:02:22 10° NE daylight
10 Oct - 18:37:56 10° WNW 18:39:48 12° NW 18:41:39 10° NNW visible
11 Oct - 05:05:54 10° NW 05:10:35 82° SW 05:15:14 10° SE visible
11 Oct - 15:38:39 10° SSE 15:41:14 15° SE 15:43:50 10° E daylight
11 Oct - 17:18:46 10° WSW 17:23:15 44° NW 17:27:46 10° NNE daylight
12 Oct - 03:50:15 10° N 03:54:09 25° NE 03:57:59 10° ESE visible
12 Oct - 05:32:20 10° WNW 05:36:07 24° SW 05:39:53 10° S daylight
12 Oct - 16:02:19 10° SSW 16:06:49 46° SE 16:11:21 10° NE daylight
12 Oct - 17:46:24 10° W 17:48:51 14° NW 17:51:19 10° NNW daylight
13 Oct - 04:14:58 10° NW 04:19:41 86° NE 04:24:21 10° SE visible
13 Oct - 14:48:19 10° SSE 14:50:19 12° SE 14:52:19 10° ESE daylight
13 Oct - 16:27:47 10° SW 16:32:20 51° NW 16:36:56 10° NNE daylight
14 Oct - 02:59:33 10° N 03:03:13 22° NE 03:06:52 10° ESE visible
14 Oct - 04:41:12 10° WNW 04:45:12 28° SW 04:49:12 10° S visible
14 Oct - 15:11:32 10° SSW 15:15:54 39° SE 15:20:18 10° ENE daylight
14 Oct - 16:55:02 10° W 16:57:55 16° NW 17:00:49 10° NNW daylight
15 Oct - 03:24:04 10° NNW 03:28:46 74° NE 03:33:26 10° SE visible
15 Oct - 13:58:21 10° SE 13:59:23 11° SE 14:00:23 10° ESE daylight
15 Oct - 15:36:48 10° SW 15:41:25 60° NW 15:46:03 10° NNE daylight
16 Oct - 02:08:53 10° N 02:12:17 19° NE 02:15:40 10° E night (unlit)
16 Oct - 03:50:05 10° WNW 03:54:17 32° SW 03:58:28 10° SSE visible
16 Oct - 14:20:45 10° SSW 14:24:59 34° SE 14:29:14 10° ENE daylight
16 Oct - 16:03:45 10° W 16:06:59 18° NW 16:10:14 10° N daylight
